Flag for Germany Weather past 2 weeks in Ettlingen, Baden-Württemberg, Germany

Now
64 °F

Passing clouds.


Feels Like: 64 °F
Forecast: 63 / 96 °F
Wind: 5 mph from North

Location: Karlsruhe - Baden Wurttemberg

Current Time: Aug 5, 2015 at 8:37:49 AM

Latest Report: Aug 5, 2015 at 8:20 AM


Visibility: N/A

Pressure: 30.09 "Hg

Humidity: 83%

Dew point: 59 °F

Location of EttlingenLocation

Historic Weather in Ettlingen — Graph

°F

Ettlingen temperature yesterday

Maximum temperature yesterday: 79 °F (at 10:50 AM)
Minimum temperature yesterday: 61 °F (at 4:50 AM)
Average temperature yesterday: 69 °F

Past Weeks' High & Low Weather Summary

 TemperatureHumidityPressure
High91 °F (Jul 21, 5:50 PM)94% (Aug 2, 6:20 AM)30.12 "Hg (Aug 2, 6:20 AM)
Low46 °F (Jul 26, 6:50 AM)20% (Aug 3, 4:20 PM)29.65 "Hg (Jul 24, 8:20 PM)
Average70 °F55%29.93 "Hg
* Reported Jul 21 7:20 AM — Aug 5 7:20 AM, Ettlingen, Weather by CustomWeather, © 2015

Note: Actual official high and low records may vary slightly from our data, if they occured in-between our weather recording intervals... More about our weather records

Advertising

Ettlingen weather history for previous 24 hours

 ConditionsComfort  
Time TempWeatherWind HumidityBarometerVisibility
7:20 AM
Wed, Aug 5
61 °FPassing clouds.5 mph94%30.09 "Hg5 mi
10:50 PM
Tue, Aug 4
64 °FPartly cloudy.2 mph94%30.09 "HgN/A
10:20 PM64 °FPartly cloudy.5 mph88%30.09 "HgN/A
9:50 PM66 °FSunny.3 mph88%30.09 "Hg10 mi
9:20 PM66 °FBroken clouds.3 mph88%30.07 "HgN/A
8:50 PM66 °FBroken clouds.5 mph88%30.07 "HgN/A
8:20 PM66 °FPartly sunny.5 mph88%30.07 "HgN/A
7:50 PM66 °FScattered showers. Broken clouds.7 mph88%30.07 "HgN/A
7:20 PM66 °FScattered showers. Broken clouds.9 mph88%30.07 "HgN/A
6:50 PM66 °FScattered showers. Broken clouds.3 mph88%30.04 "HgN/A
6:20 PM66 °FRain showers. Partly sunny.7 mph83%30.04 "Hg5 mi
5:55 PM70 °FSprinkles. Broken clouds.9 mph73%30.04 "HgN/A
5:20 PM75 °FScattered showers. Scattered clouds.13 mph61%30.01 "HgN/A
4:50 PM75 °FScattered showers. Scattered clouds.15 mph61%30.01 "HgN/A
4:20 PM75 °FScattered showers. Scattered clouds.18 mph61%30.01 "HgN/A
3:50 PM73 °FScattered showers. Scattered clouds.18 mph65%30.01 "HgN/A
3:20 PM72 °FScattered showers. Scattered clouds.15 mph69%30.04 "HgN/A
2:50 PM72 °FScattered clouds.12 mph69%30.04 "HgN/A
2:20 PM70 °FScattered showers. Scattered clouds.13 mph78%30.01 "HgN/A
1:50 PM70 °FLight rain. Partly sunny.6 mph78%30.04 "HgN/A
1:20 PM70 °FLight rain. Broken clouds.8 mph73%30.01 "Hg6 mi
12:54 PM72 °FLight rain. Broken clouds.7 mph61%30.01 "Hg6 mi
12:20 PM73 °FPartly sunny.9 mph57%30.01 "HgN/A
11:50 AM79 °FPassing clouds.13 mph45%30.01 "HgN/A
11:20 AM79 °FPassing clouds.9 mph45%29.98 "HgN/A
10:50 AM79 °FPassing clouds.12 mph42%29.98 "HgN/A
10:20 AM77 °FPassing clouds.13 mph51%29.98 "HgN/A
9:50 AM75 °FSunny.12 mph54%29.95 "Hg10 mi
9:20 AM72 °FPassing clouds.6 mph61%29.92 "HgN/A
8:50 AM73 °FPassing clouds.5 mph53%29.89 "HgN/A
8:20 AM72 °FSunny.2 mph61%29.89 "Hg10 mi
Weather by CustomWeather, © 2015

See weather overviewHow to use our weather pages